When you browse on this site, cookies collect data to enhance your experience and personalize the content and advertising you see.
Visit our Privacy Policy to learn more. By continuing to use the site, you agree to this use of cookies and data.
  • In Deutschland
  • Länderverzeichnis
  • Für 7 Tage
  • Wassertemperatur
  • Satellitenkarten
  • Wetterkarte
  • Widgets
  • user-avatar
    Anmelden

    Stündliche Wetter Impchal

    Heute, 17 Dezember, Montag

    Zeit Temperatur Niederschläge Wind Luftdruck Luftfeuchtigkeit
    00:00 +16°C° 0 mm 1 m/S 696 mmHg 73%
    01:00 +16°C° 0 mm 1 m/S 696 mmHg 73%
    02:00 +16°C° 0 mm 1 m/S 696 mmHg 72%
    03:00 +16°C° 0 mm 1 m/S 695 mmHg 72%
    04:00 +15°C° 0 mm 1 m/S 696 mmHg 72%
    05:00 +15°C° 0 mm 1 m/S 696 mmHg 72%
    06:00 +16°C° 0 mm 1 m/S 696 mmHg 74%
    07:00 +19°C° 0 mm 1 m/S 696 mmHg 70%
    08:00 +20°C° 0 mm 1 m/S 697 mmHg 67%
    09:00 +22°C° 0 mm 1 m/S 698 mmHg 63%
    10:00 +23°C° 0 mm 1 m/S 697 mmHg 61%
    11:00 +23°C° 0 mm 1 m/S 697 mmHg 60%
    12:00 +24°C° 0 mm 1 m/S 697 mmHg 61%
    13:00 +23°C° 0 mm 1 m/S 696 mmHg 65%
    14:00 +23°C° 0 mm 1 m/S 696 mmHg 68%
    15:00 +20°C° 0 mm 0 m/S 695 mmHg 72%
    16:00 +19°C° 0.1 mm 0 m/S 695 mmHg 76%
    17:00 +18°C° 0.1 mm 0 m/S 695 mmHg 81%
    18:00 +17°C° 0.1 mm 0 m/S 695 mmHg 85%
    19:00 +17°C° 0.4 mm 0 m/S 695 mmHg 87%
    20:00 +17°C° 0.4 mm 0 m/S 696 mmHg 89%
    21:00 +16°C° 0.4 mm 0 m/S 696 mmHg 91%
    22:00 +16°C° 0.6 mm 0 m/S 696 mmHg 92%
    23:00 +16°C° 0.6 mm 0 m/S 696 mmHg 94%

    Morgen, 18 Dezember, Dienstag

    Zeit Temperatur Niederschläge Wind Luftdruck Luftfeuchtigkeit
    00:00 +16°C° 0.6 mm 0 m/S 696 mmHg 95%
    01:00 +16°C° 1 mm 0 m/S 695 mmHg 96%
    02:00 +16°C° 1 mm 0 m/S 695 mmHg 96%
    03:00 +18°C° 1 mm 1 m/S 695 mmHg 97%
    04:00 +18°C° 1 mm 1 m/S 695 mmHg 97%
    05:00 +18°C° 1 mm 1 m/S 695 mmHg 97%
    06:00 +16°C° 1 mm 1 m/S 695 mmHg 97%
    07:00 +18°C° 1 mm 1 m/S 695 mmHg 96%
    08:00 +18°C° 1 mm 1 m/S 695 mmHg 95%
    09:00 +18°C° 1 mm 1 m/S 695 mmHg 94%
    10:00 +18°C° 1.5 mm 1 m/S 695 mmHg 93%
    11:00 +18°C° 1.5 mm 1 m/S 694 mmHg 92%
    12:00 +18°C° 1.5 mm 1 m/S 694 mmHg 92%
    13:00 +18°C° 0.8 mm 1 m/S 693 mmHg 92%
    14:00 +18°C° 0.8 mm 1 m/S 693 mmHg 92%
    15:00 +16°C° 0.8 mm 1 m/S 692 mmHg 92%
    16:00 +16°C° 0.3 mm 1 m/S 692 mmHg 93%
    17:00 +16°C° 0.3 mm 1 m/S 692 mmHg 94%
    18:00 +15°C° 0.3 mm 1 m/S 692 mmHg 95%
    19:00 +15°C° 0.6 mm 1 m/S 693 mmHg 94%
    20:00 +15°C° 0.6 mm 1 m/S 693 mmHg 94%
    21:00 +14°C° 0.6 mm 0 m/S 693 mmHg 94%
    22:00 +14°C° 2.4 mm 0 m/S 693 mmHg 94%
    23:00 +14°C° 2.4 mm 0 m/S 693 mmHg 95%

    übermorgen, 19 Dezember, Mittwoch

    Zeit Temperatur Niederschläge Wind Luftdruck Luftfeuchtigkeit
    00:00 +14°C° 2.4 mm 0 m/S 693 mmHg 96%
    01:00 +14°C° 1.4 mm 0 m/S 693 mmHg 96%
    02:00 +14°C° 1.4 mm 0 m/S 693 mmHg 97%
    03:00 +15°C° 1.4 mm 0 m/S 692 mmHg 97%
    04:00 +14°C° 0.1 mm 0 m/S 693 mmHg 97%
    05:00 +14°C° 0.1 mm 0 m/S 693 mmHg 97%
    06:00 +14°C° 0.1 mm 0 m/S 693 mmHg 97%
    07:00 +15°C° 0 mm 0 m/S 694 mmHg 94%
    08:00 +17°C° 0 mm 0 m/S 694 mmHg 91%
    09:00 +18°C° 0 mm 0 m/S 695 mmHg 88%
    10:00 +21°C° 0 mm 1 m/S 695 mmHg 80%
    11:00 +23°C° 0 mm 1 m/S 695 mmHg 72%
    12:00 +24°C° 0 mm 1 m/S 695 mmHg 64%
    13:00 +24°C° 0.1 mm 1 m/S 694 mmHg 65%
    14:00 +23°C° 0.1 mm 1 m/S 694 mmHg 66%
    15:00 +23°C° 0.1 mm 1 m/S 693 mmHg 68%
    16:00 +21°C° 0 mm 1 m/S 693 mmHg 76%
    17:00 +19°C° 0 mm 1 m/S 693 mmHg 83%
    18:00 +15°C° 0 mm 0 m/S 693 mmHg 91%
    19:00 +14°C° 0 mm 0 m/S 694 mmHg 92%
    20:00 +14°C° 0 mm 0 m/S 694 mmHg 93%
    21:00 +13°C° 0 mm 0 m/S 695 mmHg 94%
    22:00 +13°C° 0 mm 0 m/S 695 mmHg 95%
    23:00 +13°C° 0 mm 0 m/S 694 mmHg 95%

    20 Dezember, Donnerstag

    Zeit Temperatur Niederschläge Wind Luftdruck Luftfeuchtigkeit
    00:00 +14°C° 0 mm 1 m/S 694 mmHg 95%
    01:00 +13°C° 0 mm 1 m/S 694 mmHg 94%
    02:00 +13°C° 0 mm 1 m/S 694 mmHg 94%
    03:00 +13°C° 0 mm 1 m/S 694 mmHg 94%
    04:00 +13°C° 0 mm 1 m/S 694 mmHg 93%
    05:00 +13°C° 0 mm 1 m/S 694 mmHg 93%
    06:00 +12°C° 0 mm 1 m/S 694 mmHg 93%
    07:00 +15°C° 0 mm 1 m/S 695 mmHg 85%
    08:00 +18°C° 0 mm 1 m/S 695 mmHg 77%
    09:00 +18°C° 0 mm 0 m/S 696 mmHg 69%
    10:00 +22°C° 0 mm 1 m/S 696 mmHg 63%
    11:00 +23°C° 0 mm 1 m/S 696 mmHg 57%
    12:00 +25°C° 0 mm 1 m/S 695 mmHg 51%
    13:00 +25°C° 0 mm 1 m/S 694 mmHg 51%
    14:00 +24°C° 0 mm 1 m/S 694 mmHg 52%
    15:00 +24°C° 0 mm 1 m/S 693 mmHg 52%
    16:00 +22°C° 0 mm 1 m/S 693 mmHg 64%
    17:00 +17°C° 0 mm 0 m/S 693 mmHg 75%
    18:00 +15°C° 0 mm 0 m/S 692 mmHg 87%
    19:00 +14°C° 0 mm 0 m/S 693 mmHg 88%
    20:00 +14°C° 0 mm 0 m/S 693 mmHg 89%
    21:00 +13°C° 0 mm 0 m/S 693 mmHg 91%
    22:00 +13°C° 0 mm 0 m/S 693 mmHg 91%
    23:00 +13°C° 0 mm 0 m/S 693 mmHg 90%

    21 Dezember, Freitag

    Zeit Temperatur Niederschläge Wind Luftdruck Luftfeuchtigkeit
    00:00 +13°C° 0 mm 0 m/S 693 mmHg 90%
    01:00 +13°C° 0 mm 1 m/S 693 mmHg 91%
    02:00 +13°C° 0 mm 1 m/S 692 mmHg 91%
    03:00 +13°C° 0 mm 1 m/S 692 mmHg 92%
    04:00 +13°C° 0 mm 1 m/S 692 mmHg 92%
    05:00 +12°C° 0 mm 1 m/S 693 mmHg 92%
    06:00 +12°C° 0 mm 1 m/S 693 mmHg 92%
    07:00 +14°C° 0 mm 0 m/S 694 mmHg 83%
    08:00 +16°C° 0 mm 0 m/S 695 mmHg 74%
    09:00 +19°C° 0 mm 0 m/S 696 mmHg 65%
    10:00 +22°C° 0 mm 1 m/S 695 mmHg 58%
    11:00 +24°C° 0 mm 1 m/S 695 mmHg 51%
    12:00 +25°C° 0 mm 1 m/S 694 mmHg 45%
    13:00 +25°C° 0 mm 1 m/S 694 mmHg 45%
    14:00 +25°C° 0 mm 1 m/S 693 mmHg 46%
    15:00 +24°C° 0 mm 1 m/S 693 mmHg 46%
    16:00 +22°C° 0 mm 1 m/S 692 mmHg 58%
    17:00 +19°C° 0 mm 1 m/S 692 mmHg 70%
    18:00 +14°C° 0 mm 0 m/S 692 mmHg 82%
    19:00 +14°C° 0 mm 0 m/S 692 mmHg 84%
    20:00 +14°C° 0 mm 1 m/S 693 mmHg 85%
    21:00 +14°C° 0 mm 1 m/S 693 mmHg 87%
    22:00 +13°C° 0 mm 1 m/S 693 mmHg 87%
    23:00 +13°C° 0 mm 1 m/S 693 mmHg 86%

    22 Dezember, Samstag

    Zeit Temperatur Niederschläge Wind Luftdruck Luftfeuchtigkeit
    00:00 +13°C° 0 mm 1 m/S 693 mmHg 86%
    01:00 +13°C° 0 mm 1 m/S 693 mmHg 86%
    02:00 +12°C° 0 mm 1 m/S 692 mmHg 86%
    03:00 +12°C° 0 mm 1 m/S 692 mmHg 85%
    04:00 +12°C° 0 mm 1 m/S 693 mmHg 85%
    05:00 +12°C° 0 mm 1 m/S 693 mmHg 85%
    06:00 +12°C° 0 mm 1 m/S 693 mmHg 85%
    07:00 +14°C° 0 mm 1 m/S 694 mmHg 77%
    08:00 +18°C° 0 mm 1 m/S 695 mmHg 68%
    09:00 +19°C° 0 mm 0 m/S 696 mmHg 59%
    10:00 +22°C° 0 mm 1 m/S 696 mmHg 53%
    11:00 +24°C° 0 mm 1 m/S 695 mmHg 46%
    12:00 +25°C° 0 mm 1 m/S 695 mmHg 40%
    13:00 +25°C° 0 mm 1 m/S 694 mmHg 41%
    14:00 +25°C° 0 mm 1 m/S 694 mmHg 42%
    15:00 +25°C° 0 mm 1 m/S 693 mmHg 44%
    16:00 +22°C° 0 mm 1 m/S 693 mmHg 56%
    17:00 +19°C° 0 mm 1 m/S 693 mmHg 68%
    18:00 +15°C° 0 mm 1 m/S 693 mmHg 81%
    19:00 +15°C° 0 mm 1 m/S 693 mmHg 83%
    20:00 +14°C° 0 mm 1 m/S 693 mmHg 85%
    21:00 +14°C° 0 mm 1 m/S 694 mmHg 87%
    22:00 +13°C° 0 mm 1 m/S 694 mmHg 86%
    23:00 +13°C° 0 mm 1 m/S 693 mmHg 86%
    Mehr zeigen